Flag for Germany Weather past 2 weeks in Worms, Rhineland-Palatinate, Germany

Now
63 °F

Clear.


Feels Like: 63 °F
Forecast: 45 / 61 °F
Wind: 5 mph from West

Location: Baden Wurttemberg - Neuostheim

Current Time: Oct 20, 2014 at 8:57:25 PM

Latest Report: Oct 20, 2014 at 8:20 PM


Visibility: 10 mi

Pressure: 30.01 "Hg

Humidity: 73%

Dew point: 54 °F

Location of WormsLocation

Historic Weather in Worms — Graph

°F

Worms temperature yesterday

Maximum temperature yesterday: 75 °F (at 4:20 PM)
Minimum temperature yesterday: 57 °F (at 7:50 AM)
Average temperature yesterday: 67 °F

Past Weeks' High & Low Weather Summary

 TemperatureHumidityPressure
High75 °F (Oct 19, 4:20 PM)100% (Oct 9, 10:20 PM)30.18 "Hg (Oct 9, 10:20 PM)
Low46 °F (Oct 18, 7:20 AM)57% (Oct 14, 3:20 PM)29.68 "Hg (Oct 7, 8:50 AM)
Average62 °F82%29.89 "Hg
* Reported Oct 6 5:20 AM — Oct 20 7:50 PM, Worms, Weather by CustomWeather, © 2014

Note: Actual official high and low records may vary slightly from our data, if they occured in-between our weather recording intervals... More about our weather records

Advertising

Worms weather history for previous 24 hours

 ConditionsComfort  
Time TempWeatherWind HumidityBarometerVisibility
7:50 PM
Oct 20
63 °FOvercast.6 mph73%30.04 "HgN/A
7:20 PM64 °FBroken clouds.7 mph68%30.01 "HgN/A
6:50 PM64 °FPartly sunny.7 mph68%30.04 "HgN/A
6:20 PM64 °FPartly sunny.5 mph68%30.01 "HgN/A
5:50 PM64 °FPartly sunny.6 mph68%30.04 "HgN/A
5:20 PM66 °FSunny.6 mph64%30.04 "Hg10 mi
4:50 PM66 °FBroken clouds.2 mph73%30.04 "HgN/A
4:20 PM66 °FBroken clouds.6 mph68%30.04 "HgN/A
3:50 PM66 °FPartly sunny.7 mph68%30.07 "HgN/A
3:20 PM66 °FScattered clouds.5 mph73%30.04 "HgN/A
2:50 PM66 °FPartly sunny.7 mph68%30.07 "HgN/A
2:20 PM66 °FBroken clouds.7 mph68%30.07 "HgN/A
1:50 PM66 °FBroken clouds.6 mph73%30.07 "HgN/A
1:20 PM66 °FPartly sunny.7 mph68%30.07 "HgN/A
12:50 PM66 °FOvercast.9 mph73%30.09 "HgN/A
12:20 PM66 °FOvercast.7 mph73%30.09 "HgN/A
11:50 AM64 °FBroken clouds.7 mph83%30.09 "HgN/A
11:20 AM64 °FScattered showers. Partly sunny.6 mph83%30.09 "HgN/A
10:50 AM63 °FScattered showers. Partly sunny.5 mph88%30.09 "HgN/A
10:20 AM64 °FOvercast.3 mph83%30.09 "HgN/A
9:50 AM64 °FMore clouds than sun.3 mph83%30.09 "HgN/A
9:20 AM64 °FMore clouds than sun.3 mph83%30.09 "HgN/A
8:50 AM64 °FMostly cloudy.6 mph83%30.09 "HgN/A
8:20 AM64 °FOvercast.3 mph83%30.09 "HgN/A
7:50 AM64 °FOvercast.5 mph78%30.09 "HgN/A
7:20 AM66 °FMostly cloudy.7 mph73%30.09 "HgN/A
6:50 AM66 °FOvercast.5 mph78%30.07 "HgN/A
8:20 PM
Oct 19
70 °FClear.7 mph69%30.07 "Hg10 mi
Weather by CustomWeather, © 2014

See weather overviewHow to use our weather pages